DW4127 Weather Reports


Display with metric or nautical units.
time (UTC)temp
F
wind
direction
speed
MPH
gust
MPH
rain 1hr
in
rain 24hr
in
rain mn
in
humidity
%
barometer
mb
20210916154016 82 90 2.0 9.0 0.00 0.00 0.00 67 1014.0
20210916153016 81 113 2.0 6.0 0.00 0.00 0.00 69 1014.0
20210916152016 81 113 2.0 8.0 0.00 0.00 0.00 71 1013.9
20210916151019 80 90 1.0 4.0 0.00 0.00 0.00 72 1014.0
20210916150016 80 0.0 3.0 0.00 0.00 0.00 72 1014.0
20210916145016 79 113 1.0 4.0 0.00 0.00 0.00 74 1014.0
20210916144016 79 135 1.0 5.0 0.00 0.00 0.00 74 1014.0
20210916143017 78 113 2.0 6.0 0.00 0.00 0.00 77 1013.8
20210916142016 77 113 2.0 6.0 0.00 0.00 0.00 78 1013.7
20210916141016 77 113 1.0 3.0 0.00 0.00 0.00 80 1013.7
20210916140016 77 135 1.0 3.0 0.00 0.00 0.00 82 1013.7
20210916135016 76 113 1.0 6.0 0.00 0.00 0.00 82 1013.7
20210916134016 75 113 2.0 7.0 0.00 0.00 0.00 82 1013.7
20210916133016 74 0.0 2.0 0.00 0.00 0.00 85 1013.6
20210916132016 73 0.0 0.0 0.00 0.00 0.00 86 1013.6
20210916131019 72 0.0 2.0 0.00 0.00 0.00 86 1013.5
20210916130016 72 45 1.0 2.0 0.00 0.00 0.00 87 1013.5
20210916125016 71 0.0 1.0 0.00 0.00 0.00 88 1013.3
20210916124016 70 0.0 0.0 0.00 0.00 0.00 90 1013.2
20210916123016 70 0.0 0.0 0.00 0.00 0.00 89 1012.9
20210916122016 70 0.0 0.0 0.00 0.00 0.00 89 1012.9
20210916121016 70 0.0 0.0 0.00 0.00 0.00 89 1012.7
20210916120016 70 0.0 0.0 0.00 0.00 0.00 89 1012.6
20210916115016 70 0.0 0.0 0.00 0.00 0.00 89 1012.6
20210916114016 70 0.0 0.0 0.00 0.00 0.00 89 1012.5
20210916113016 70 0.0 0.0 0.00 0.00 0.00 88 1012.5
20210916112016 71 0.0 0.0 0.00 0.00 0.00 89 1012.4
20210916111016 70 0.0 0.0 0.00 0.00 0.00 89 1012.4
20210916110016 70 0.0 0.0 0.00 0.00 0.00 89 1012.3
20210916105016 70 0.0 0.0 0.00 0.00 0.00 90 1012.2
20210916104016 70 0.0 0.0 0.00 0.00 0.00 90 1012.2
20210916103016 70 0.0 0.0 0.00 0.00 0.00 90 1012.1
20210916102016 70 0.0 0.0 0.00 0.00 0.00 90 1012.1
20210916101015 70 0.0 0.0 0.00 0.00 0.00 90 1012.1
20210916100016 70 0.0 1.0 0.00 0.00 0.00 90 1012.2
20210916095015 71 0.0 0.0 0.00 0.00 0.00 90 1012.1
20210916094015 71 0.0 1.0 0.00 0.00 0.00 89 1012.0
20210916093016 71 0.0 1.0 0.00 0.00 0.00 89 1012.1
20210916092016 71 0.0 0.0 0.00 0.00 0.00 89 1012.0
20210916091015 71 0.0 0.0 0.00 0.00 0.00 88 1011.9
20210916090016 71 0.0 0.0 0.00 0.00 0.00 88 1012.0
20210916085016 71 0.0 0.0 0.00 0.00 0.00 88 1011.9
20210916084015 71 0.0 0.0 0.00 0.00 0.00 87 1011.9
20210916083016 71 0.0 0.0 0.00 0.00 0.00 87 1012.0
20210916082016 72 0.0 0.0 0.00 0.00 0.00 86 1012.0
20210916081016 72 0.0 0.0 0.00 0.00 0.00 86 1012.0
20210916080016 72 0.0 0.0 0.00 0.00 0.00 86 1012.1
20210916075016 72 0.0 0.0 0.00 0.00 0.00 86 1012.1
20210916074018 72 0.0 0.0 0.00 0.00 0.00 85 1012.0
20210916073015 72 0.0 0.0 0.00 0.00 0.00 85 1012.0
20210916072016 73 0.0 0.0 0.00 0.00 0.00 85 1012.2
20210916071016 73 0.0 0.0 0.00 0.00 0.00 85 1012.2
20210916070016 73 0.0 0.0 0.00 0.00 0.00 84 1012.3
20210916065015 73 0.0 0.0 0.00 0.00 0.00 84 1012.3
20210916064016 73 0.0 0.0 0.00 0.00 0.00 85 1012.4
20210916063015 74 0.0 0.0 0.00 0.00 0.00 84 1012.5
20210916062016 74 0.0 0.0 0.00 0.00 0.00 83 1012.3
20210916061016 74 0.0 0.0 0.00 0.00 0.00 83 1012.3
20210916060016 74 0.0 0.0 0.00 0.00 0.00 82 1012.3
20210916055015 74 0.0 1.0 0.00 0.00 0.00 82 1012.3
20210916054016 75 0.0 0.0 0.00 0.00 0.00 80 1012.3
20210916053016 75 0.0 0.0 0.00 0.00 0.00 79 1012.3
20210916052015 75 0.0 0.0 0.00 0.00 0.00 79 1012.3
20210916051015 75 0.0 0.0 0.00 0.00 0.00 78 1012.3
20210916050105 76 0.0 1.0 0.00 0.00 0.00 77 1012.4
20210916045517 77 0.0 1.0 0.00 0.00 0.00 75 1012.4
20210916044517 76 0.0 0.0 0.00 0.00 0.00 76 1012.3
20210916043517 77 0.0 0.0 0.00 0.00 0.00 74 1012.3
20210916042517 77 0.0 1.0 0.00 0.00 0.00 73 1012.4
20210916041517 77 90 1.0 2.0 0.00 0.00 0.00 73 1012.4
20210916040517 76 0.0 0.0 0.00 0.00 0.00 76 1012.4
20210916035516 77 0.0 0.0 0.00 0.00 0.00 76 1012.4
20210916034516 77 0.0 0.0 0.00 0.00 0.00 74 1012.4
20210916033517 77 0.0 0.0 0.00 0.00 0.00 75 1012.3
20210916032516 78 0.0 0.0 0.00 0.00 0.00 74 1012.3
20210916031517 78 0.0 0.0 0.00 0.00 0.00 73 1012.3
20210916030516 79 0.0 0.0 0.00 0.00 0.00 71 1012.3
20210916025517 79 0.0 0.0 0.00 0.00 0.00 71 1012.1
20210916024516 79 0.0 0.0 0.00 0.00 0.00 71 1012.0
20210916023517 79 0.0 0.0 0.00 0.00 0.00 69 1011.9
20210916022517 80 0.0 0.0 0.00 0.00 0.00 69 1011.8
20210916021516 80 0.0 0.0 0.00 0.00 0.00 67 1011.7
20210916020517 81 0.0 0.0 0.00 0.00 0.00 66 1011.5
20210916015517 82 0.0 0.0 0.00 0.00 0.00 64 1011.4
20210916014517 82 0.0 0.0 0.00 0.00 0.00 64 1011.2
20210916013516 82 0.0 0.0 0.00 0.00 0.00 63 1011.1
20210916012516 83 0.0 1.0 0.00 0.00 0.00 62 1011.0
20210916011517 83 0.0 1.0 0.00 0.00 0.00 62 1010.8
20210916010516 83 0.0 0.0 0.00 0.00 0.00 61 1010.7
20210916005517 84 0.0 0.0 0.00 0.00 0.00 60 1010.6
20210916004516 84 0.0 1.0 0.00 0.00 0.00 59 1010.5
20210916003516 85 0 1.0 3.0 0.00 0.00 0.00 58 1010.5
20210916002516 85 0.0 1.0 0.00 0.00 0.00 57 1010.5
20210916001516 85 23 1.0 3.0 0.00 0.00 0.00 56 1010.4
20210916000517 86 0 1.0 3.0 0.00 0.00 0.00 55 1010.5
20210915235517 86 68 1.0 3.0 0.00 0.00 0.00 55 1010.3
20210915234516 86 45 1.0 2.0 0.00 0.00 0.00 55 1010.2
20210915233516 87 45 1.0 4.0 0.00 0.00 0.00 54 1010.3
20210915232516 86 0.0 2.0 0.00 0.00 0.00 54 1010.2
20210915231516 87 68 1.0 3.0 0.00 0.00 0.00 52 1010.1
20210915230516 89 0 2.0 6.0 0.00 0.00 0.00 50 1010.1
20210915225516 89 68 1.0 3.0 0.00 0.00 0.00 51 1010.1
20210915224516 89 23 1.0 3.0 0.00 0.00 0.00 52 1010.1
20210915223516 88 90 2.0 4.0 0.00 0.00 0.00 51 1010.1
20210915222516 90 0 1.0 3.0 0.00 0.00 0.00 50 1010.1
20210915221519 91 113 2.0 7.0 0.00 0.00 0.00 49 1010.1
20210915220516 90 90 1.0 2.0 0.00 0.00 0.00 49 1010.1
20210915215516 92 0 2.0 4.0 0.00 0.00 0.00 47 1010.1
20210915214516 93 23 2.0 4.0 0.00 0.00 0.00 46 1010.1
20210915213516 91 23 2.0 8.0 0.00 0.00 0.00 49 1010.2
20210915212516 91 338 1.0 3.0 0.00 0.00 0.00 50 1010.2
20210915211516 91 45 2.0 7.0 0.00 0.00 0.00 51 1010.3
20210915210516 90 45 2.0 5.0 0.00 0.00 0.00 50 1010.4
20210915205516 89 90 1.0 5.0 0.00 0.00 0.00 55 1010.5
20210915204516 88 338 2.0 8.0 0.00 0.00 0.00 54 1010.6
20210915203516 89 45 2.0 7.0 0.00 0.00 0.00 52 1010.7
20210915202517 89 68 2.0 8.0 0.00 0.00 0.00 51 1010.8
20210915201516 89 90 2.0 7.0 0.00 0.00 0.00 53 1011.0
20210915200519 88 0 3.0 8.0 0.00 0.00 0.00 53 1011.1
20210915195516 90 113 2.0 6.0 0.00 0.00 0.00 51 1011.3
20210915194516 87 0 2.0 5.0 0.00 0.00 0.00 56 1011.4
20210915193516 89 338 3.0 10.0 0.00 0.00 0.00 54 1011.5
20210915192516 89 45 2.0 5.0 0.00 0.00 0.00 52 1011.7
20210915191516 89 0 3.0 5.0 0.00 0.00 0.00 54 1011.7
20210915190519 89 68 3.0 10.0 0.00 0.00 0.00 54 1011.8
20210915185516 90 68 2.0 8.0 0.00 0.00 0.00 53 1012.0
20210915184516 88 0 4.0 12.0 0.00 0.00 0.00 54 1012.1
20210915183516 89 0 3.0 7.0 0.00 0.00 0.00 55 1012.3
20210915182516 89 68 2.0 7.0 0.00 0.00 0.00 55 1012.3
20210915181516 87 23 2.0 7.0 0.00 0.00 0.00 56 1012.5
20210915180516 87 113 2.0 8.0 0.00 0.00 0.00 56 1012.5
20210915175516 88 90 2.0 7.0 0.00 0.00 0.00 56 1012.5
20210915174516 87 90 2.0 7.0 0.00 0.00 0.00 59 1012.6
20210915173516 87 113 3.0 10.0 0.00 0.00 0.00 58 1012.6
20210915172516 86 0 1.0 5.0 0.00 0.00 0.00 58 1012.9
20210915171516 86 90 2.0 5.0 0.00 0.00 0.00 59 1012.9
20210915170516 85 68 3.0 11.0 0.00 0.00 0.00 60 1013.1
20210915165516 84 45 1.0 3.0 0.00 0.00 0.00 61 1013.2
20210915164516 84 68 2.0 6.0 0.00 0.00 0.00 60 1013.3
20210915163516 83 113 3.0 8.0 0.00 0.00 0.00 62 1013.5
20210915162516 83 68 2.0 6.0 0.00 0.00 0.00 64 1013.6
20210915161516 82 113 2.0 8.0 0.00 0.00 0.00 64 1013.9
20210915160516 82 113 2.0 6.0 0.00 0.00 0.00 66 1014.0
20210915155516 81 0 3.0 8.0 0.00 0.00 0.00 68 1014.0